Regional Weather Roundup
Issued by NWS State College, PA

Home | Current Version | Previous Version | Graphics & Text | Print | Product List | Glossary Off
Versions: 1 2 3 4 5 6 7 8 9 10 11 12 13 14 15 16 17 18 19 20 21 22 23 24 25 26 27 28 29 30 31 32 33 34 35 36 37 38 39 40 41 42 43 44 45 46 47 48 49 50

000
ASUS41 KCTP 291410
RWRCTP

REGIONAL WEATHER ROUNDUP
NATIONAL WEATHER SERVICE STATE COLLEGE PA
1000 AM EDT MON MAY 29 2017

Note: "fair" indicates few or no clouds below 12,000 feet with no
significant weather and/or obstructions to visibility.

* = STATION THAT DOES NOT REPORT PRECIPITATION /E.G. RAIN...SNOW...ETC/
    THUNDER OR FOG.

PAZ002>004-007>009-013>016-020>023-029>032-291500-
WESTERN PENNSYLVANIA

CITY           SKY/WX    TMP DP  RH WIND       PRES   REMARKS
ERIE           PTSUNNY   68  54  60 W10G25    29.83R
MEADVILLE      MOSUNNY   65  60  84 SW9       29.87R
FRANKLIN*      PTSUNNY   64  57  77 W9        29.88S
NEW CASTLE     FAIR      67  58  72 W7        29.89R
BEAVER COUNTY  NOT AVBL
BUTLER*        MOSUNNY   66  59  77 W6        29.90R
PITTSBURGH INT MOSUNNY   67  60  78 W8        29.89R
PITTSBURGH     SUNNY     68  55  63 SW7       29.90R
INDIANA*       CLOUDY    64  63  94 W8G14     29.92S
LATROBE        PTSUNNY   64  63  94 W12       29.91S
WASHINGTON CO* SUNNY     66  59  77 SW6       29.93S
$$

PAZ004>006-010>012-017>019-024>028-033>037-041-042-045-046-049>053-291500-
CENTRAL PENNSYLVANIA

CITY           SKY/WX    TMP DP  RH WIND       PRES   REMARKS
BRADFORD       CLOUDY    61  59  93 VRB7      29.86R
DUBOIS         PTSUNNY   63  58  83 SW10      29.87S
CLEARFIELD     PTSUNNY   65  60  84 W8        29.88S
JOHNSTOWN      CLOUDY    62  58  86 W10G20    29.90F
ALTOONA        CLOUDY    67  58  72 W10G18    29.89S
STATE COLLEGE  PTSUNNY   66  61  82 W9        29.86S
WILLIAMSPORT   LGT RAIN  60  57  89 CALM      29.87R
SELINSGROVE    CLOUDY    61  58  90 S5        29.90R
FT INDIANTOWN  CLOUDY    59  59 100 CALM      29.90R
CAPITAL CITY   FOG       61  58  90 E6        29.89R VSB 1
HARRISBURG     CLOUDY    61  61 100 E5        29.89R FOG
YORK           CLOUDY    63  62  97 VRB3      29.89R
$$

PAZ038>040-043-044-047-048-054-055-060>062-067>071-291500-
EASTERN PENNSYLVANIA

CITY           SKY/WX    TMP DP  RH WIND       PRES   REMARKS
SCRANTON       LGT RAIN  57  54  89 NE5       29.87S
MOUNT POCONO   RAIN      50  50 100 E8        29.90R FOG
ALLENTOWN      CLOUDY    61  56  83 E13       29.90S
QUAKERTOWN*    CLOUDY    55  55 100 E5        29.91S
READING        CLOUDY    60  58  92 SW3       29.90R
LANCASTER      CLOUDY    60  60 100 E3        29.91R FOG
COATESVILLE      N/A     57  57 100 E9        29.91R FOG
POTTSTOWN      CLOUDY    57  56  96 VRB6      29.92R
BLUE BELL      CLOUDY    55  55 100 E6        29.91S
DOYLESTOWN     CLOUDY    56  56 100 CALM      29.90S
WILLOW GROVE   NOT AVBL
NORTH PHILA    CLOUDY    59  56  89 E9        29.92R
PHILADELPHIA   LGT RAIN  59  57  93 E8        29.90R FOG
$$




USA.gov is the U.S. government's official web portal to all federal, state and local government web resources and services.